Change the Weather History Date:

Monday, February 17, 2014

  Actual Average (KHVN) Record (KHVN)
Temperature  
Mean Temperature 18 °F -  
Max Temperature 30 °F 38 °F 30 °F (2014)
Min Temperature 6 °F 25 °F 9 °F (2015)
Degree Days  
Heating Degree Days 47    
Moisture  
Dew Point -3 °F    
Average Humidity 42    
Maximum Humidity 73    
Minimum Humidity 23    
Precipitation  
Precipitation 0.00 in - - ()
Sea Level Pressure  
Sea Level Pressure 30.29 in    
Wind  
Wind Speed 8 mph (NNW)    
Max Wind Speed 15 mph    
Max Gust Speed 28 mph    
Visibility 10 miles    
Events      
Averages and records for this station are not official NWS values.
T = Trace of Precipitation, MM = Missing Value Source: NWS Daily Summary

Daily Weather History Graph

Daily Weather History Graph

Search for Another Location

Airport or City:

Trip Planner

Search our weather history database for the weather conditions in past years. The results will help you decide how hot, cold, wet, or windy it might be!

Date:

Astronomy

Feb. 17, 2014 Rise Set
Actual Time 6:43 AM EST 5:27 PM EST
Civil Twilight 6:15 AM EST 5:55 PM EST
Nautical Twilight 5:43 AM EST 6:28 PM EST
Astronomical Twilight 5:11 AM EST 7:00 PM EST
Moon 8:22 PM EST (2/17) 7:40 AM EST (2/17)
Length of Visible Light 11h 40m
Length of Day
10h 43m
Waning Gibbous, 93% of the Moon is Illuminated
Feb 17
Waning Gibbous
Feb 22
Last Quarter
Mar 1
New
Mar 8
First Quarter
Mar 16
Full

Hourly Weather History & Observations

Time (EST) Temp. Windchill Dew Point Humidity Pressure Visibility Wind Dir Wind Speed Gust Speed Precip Events Conditions
12:53 AM 19.0 °F 6.1 °F 1.0 °F 46% 30.09 in 10.0 mi NNW 12.7 mph 27.6 mph N/A   Clear
1:53 AM 19.0 °F 6.1 °F -0.0 °F 43% 30.12 in 10.0 mi NNW 12.7 mph 24.2 mph N/A   Overcast
2:53 AM 18.0 °F 3.6 °F -2.9 °F 40% 30.14 in 10.0 mi NNW 15.0 mph 26.5 mph N/A   Clear
3:53 AM 17.1 °F 5.8 °F -4.0 °F 39% 30.15 in 10.0 mi NNW 9.2 mph - N/A   Clear
4:53 AM 17.1 °F 8.7 °F -5.1 °F 37% 30.19 in 10.0 mi NNW 5.8 mph - N/A   Clear
5:53 AM 15.1 °F - -6.0 °F 39% 30.21 in 10.0 mi Calm Calm - N/A   Clear
6:53 AM 7.0 °F - -5.1 °F 58% 30.26 in 10.0 mi Calm Calm - N/A   Clear
7:53 AM 16.0 °F - -7.1 °F 36% 30.29 in 10.0 mi Calm Calm - N/A   Clear
8:53 AM 17.1 °F 10.0 °F -8.0 °F 33% 30.30 in 10.0 mi Variable 4.6 mph - N/A   Clear
9:53 AM 19.9 °F 12.1 °F -6.0 °F 32% 30.33 in 10.0 mi Variable 5.8 mph - 0.00 in   Clear
10:53 AM 21.9 °F 11.0 °F -7.1 °F 28% 30.35 in 10.0 mi NNW 10.4 mph - 0.00 in   Clear
11:53 AM 26.1 °F 15.6 °F -6.0 °F 25% 30.34 in 10.0 mi NNW 11.5 mph 20.7 mph 0.00 in   Clear
12:53 PM 28.0 °F 16.5 °F -4.0 °F 25% 30.33 in 10.0 mi NW 15.0 mph 20.7 mph 0.00 in   Clear
1:53 PM 28.0 °F 18.6 °F -5.1 °F 24% 30.33 in 10.0 mi NNW 10.4 mph 20.7 mph 0.00 in   Clear
2:53 PM 30.0 °F 21.7 °F -4.0 °F 23% 30.34 in 10.0 mi NW 9.2 mph - 0.00 in   Clear
3:53 PM 30.0 °F 21.1 °F -4.0 °F 23% 30.35 in 10.0 mi North 10.4 mph 18.4 mph N/A   Clear
4:53 PM 28.0 °F 20.0 °F -5.1 °F 24% 30.35 in 10.0 mi North 8.1 mph - N/A   Clear
5:53 PM 25.0 °F 18.1 °F -2.9 °F 30% 30.37 in 10.0 mi NNW 5.8 mph - N/A   Clear
6:53 PM 17.1 °F - 1.9 °F 52% 30.38 in 10.0 mi Calm Calm - N/A   Clear
7:53 PM 12.0 °F - 1.9 °F 64% 30.38 in 10.0 mi Calm Calm - N/A   Clear
8:53 PM 10.9 °F - 1.0 °F 64% 30.38 in 10.0 mi Calm Calm - N/A   Clear
9:53 PM 8.1 °F - -0.0 °F 70% 30.36 in 10.0 mi Calm Calm - N/A   Clear
10:53 PM 6.1 °F - -0.9 °F 73% 30.35 in 10.0 mi Calm Calm - N/A   Clear
11:53 PM 10.9 °F - 3.9 °F 73% 30.35 in 9.0 mi Calm Calm - N/A   Clear